Ellensburg, WA
on Monday, February 25, 2013

Monday
Previous Day Next Day
Daily Summary
 ActualAverage (KYKM)Record (KYKM)
Temperature
Mean Temperature °F 38°F  
Max Temperature 48°F 50°F 67°F (1986)
Min Temperature 30°F 27°F 3°F (1993)
Degree Days
Heating Degree Days 26 27  
Month to date heating degree days 730  
Since 1 July heating degree days 4448  
Cooling Degree Days 0 0  
Month to date cooling degree days 0  
Year to date cooling degree days 0  
Moisture
Dew Point 26°F   
Average Humidity 63    
Maximum Humidity 85    
Minimum Humidity 38    
Precipitation
Precipitation 0.00 in 0.03 in 0.44 in (2004)
Month to date precipitation 0.70  
Year to date precipitation 1.84  
Snow
Snow 0.00 in 0.10 in T in (2007)
Month to date snowfall 2.4  
Year to date snowfall 7.7  
Since 1 July snowfall 20.7  
Snow Depth in   
Wind
Wind Speed 8 mph   
Max Wind Speed 30 mph   
Max Gust Speed 39 mph   
Visibility 10 miles   
Events Snow   

Key: T is trace of precipitation, MM is missing value
Source: NWS Daily Summary
Time(PST)TemperatureDew PointHumidity Pressure Visibility Wind DirectionWind SpeedGust SpeedPrecipitationEvents Conditions
12:53 AM 33.1°F 26.1°F 75% 29.98 in 10.0 miles Calm Calm - N/A   Mostly Cloudy
1:53 AM 34.0°F 26.1°F 73% 29.94 in 10.0 miles Calm Calm - N/A   Overcast
2:53 AM 32.0°F 25.0°F 75% 29.91 in 10.0 miles Calm Calm - N/A   Partly Cloudy
3:53 AM 34.0°F 27.0°F 75% 29.91 in 10.0 miles NW 4.6 mph - N/A   Overcast
4:53 AM 35.1°F 28.9°F 78% 29.90 in 8.0 miles North 3.5 mph - 0.00 in Snow Light Snow
5:53 AM 33.1°F 28.0°F 82% 29.92 in 10.0 miles WNW 3.5 mph - 0.00 in   Mostly Cloudy
6:53 AM 30.0°F 26.1°F 85% 29.94 in 10.0 miles Calm Calm - N/A   Partly Cloudy
7:53 AM 32.0°F 27.0°F 82% 29.95 in 10.0 miles Calm Calm - N/A   Mostly Cloudy
8:53 AM 37.9°F 30.0°F 73% 29.97 in 10.0 miles East 5.8 mph - N/A   Mostly Cloudy
9:53 AM 42.1°F 32.0°F 67% 29.96 in 10.0 miles WNW 9.2 mph - N/A   Scattered Clouds
10:53 AM 45.0°F 30.9°F 58% 29.96 in 10.0 miles WNW 9.2 mph - N/A   Partly Cloudy
11:53 AM 46.0°F 28.0°F 50% 29.95 in 10.0 miles NW 24.2 mph 32.2 mph N/A   Clear
12:53 PM 48.0°F 24.1°F 39% 29.94 in 10.0 miles WNW 29.9 mph 39.1 mph N/A   Clear
1:53 PM 48.0°F 26.1°F 42% 29.96 in 10.0 miles WNW 25.3 mph 34.5 mph N/A   Clear
2:53 PM 46.0°F 27.0°F 47% 30.01 in 10.0 miles NW 27.6 mph 33.4 mph N/A   Mostly Cloudy
3:53 PM 46.0°F 23.0°F 40% 30.03 in 10.0 miles WNW 18.4 mph 31.1 mph N/A   Scattered Clouds
4:53 PM 44.1°F 19.9°F 38% 30.06 in 10.0 miles WNW 20.7 mph 25.3 mph N/A   Partly Cloudy
5:53 PM 39.0°F 21.9°F 50% 30.09 in 10.0 miles WNW 12.7 mph - N/A   Mostly Cloudy
6:53 PM 35.1°F 21.9°F 59% 30.12 in 10.0 miles WNW 10.4 mph - N/A   Scattered Clouds
7:53 PM 36.0°F 24.1°F 62% 30.13 in 10.0 miles West 11.5 mph - N/A   Clear
8:53 PM 35.1°F 25.0°F 67% 30.14 in 10.0 miles NW 8.1 mph - N/A   Mostly Cloudy
9:53 PM 37.0°F 25.0°F 62% 30.15 in 10.0 miles NW 17.3 mph 26.5 mph N/A   Partly Cloudy
10:53 PM 37.0°F 25.0°F 62% 30.17 in 10.0 miles WNW 20.7 mph 29.9 mph N/A   Clear
11:53 PM 37.0°F 24.1°F 59% 30.19 in 10.0 miles WNW 19.6 mph 26.5 mph N/A   Clear
Moon Phase
Feb. 25 Feb. 25 Mar. 04 Mar. 11 Mar. 19
Sunrise:06:48 AM (PST) Moon Rise:06:05 PM (PST)2/25
Sunset:05:42 PM (PST) Moon Set:06:19 AM (PST)2/25

Copyright © 2014 The Weather Underground, Inc.